Location: Unspecified
(0.0000°N, 0.0000°E)
Time: 17:59:36
(UTC+00:00)

ITAMSAT 1 - Pass Details

Date: 27 September 2021
Orbit: 783 x 797 km, 98.9° (Epoch: 22 October)

Event Time Altitude Azimuth Distance (km) Brightness Sun altitude
Rises 19:35:14 0° 190° (S) 3,291 11.0 -26.1°
Reaches altitude 10° 19:37:56 10° 203° (SSW) 2,357 10.4 -26.8°
Maximum altitude 19:42:06 25° 257° (WSW) 1,560 9.8 -27.8°
Drops below altitude 10° 19:46:16 10° 311° (NW) 2,342 10.6 -28.8°
Sets 19:48:58 0° 324° (NW) 3,266 11.3 -29.5°
